Flag for U.S.A. Weather past 2 weeks in Kansas City, Missouri, U.S.A.

Now
42 °F

Sunny.


Feels Like: 40 °F
Forecast: 26 / 45 °F
Wind: 3 mph from South

Location: Kansas City Downtown Airport

Current Time: Jan 30, 2015 at 3:45:30 PM

Latest Report: Jan 30, 2015 at 2:54 PM


Visibility: 10 mi

Pressure: 30.46 "Hg

Humidity: 36%

Dew point: 17 °F

Location of Kansas CityLocation

Historic Weather in Kansas City — Graph

°F

Kansas City temperature yesterday

Maximum temperature yesterday: 52 °F (at 12:54 AM)
Minimum temperature yesterday: 30 °F (at 10:54 PM)
Average temperature yesterday: 41 °F

Past Weeks' High & Low Weather Summary

 TemperatureHumidityPressure
High75 °F (Jan 28, 1:54 PM)93% (Jan 26, 1:54 AM)30.60 "Hg (Jan 26, 1:54 AM)
Low23 °F (Jan 16, 5:54 AM)19% (Jan 19, 1:54 PM)29.63 "Hg (Jan 25, 3:54 AM)
Average42 °F59%30.08 "Hg
* Reported Jan 15 1:54 PM — Jan 30 1:54 PM, Kansas City, Weather by CustomWeather, © 2014

Note: Actual official high and low records may vary slightly from our data, if they occured in-between our weather recording intervals... More about our weather records

Advertising

Kansas City weather history for previous 24 hours

 ConditionsComfort  
Time TempWeatherWind HumidityBarometerVisibility
1:54 PM
Jan 30
39 °FSunny.No wind43%30.48 "Hg10 mi
12:54 PM36 °FSunny.3 mph50%30.53 "Hg10 mi
11:54 AM35 °FSunny.No wind54%30.57 "Hg10 mi
10:54 AM32 °FSunny.5 mph64%30.60 "Hg10 mi
9:54 AM29 °FSunny.6 mph75%30.58 "Hg10 mi
8:54 AM27 °FSunny.7 mph78%30.58 "Hg10 mi
7:54 AM24 °FSunny.5 mph81%30.57 "Hg10 mi
6:54 AM24 °FClear.No wind84%30.57 "Hg10 mi
5:54 AM23 °FClear.No wind88%30.56 "Hg10 mi
4:54 AM26 °FClear.3 mph84%30.56 "Hg10 mi
3:54 AM26 °FClear.3 mph81%30.57 "Hg10 mi
2:54 AM27 °FClear.5 mph81%30.56 "Hg10 mi
1:54 AM30 °FClear.No wind75%30.55 "Hg10 mi
12:54 AM30 °FClear.5 mph75%30.54 "Hg10 mi
11:54 PM
Jan 29
30 °FClear.No wind75%30.55 "Hg10 mi
10:54 PM30 °FClear.No wind75%30.55 "Hg10 mi
9:54 PM32 °FClear.No wind69%30.54 "Hg10 mi
8:54 PM35 °FClear.3 mph64%30.53 "Hg10 mi
7:54 PM36 °FClear.3 mph64%30.52 "Hg10 mi
6:54 PM37 °FClear.3 mph60%30.50 "Hg10 mi
5:54 PM39 °FPassing clouds.12 mph57%30.47 "Hg10 mi
4:54 PM41 °FPartly sunny.12 mph53%30.44 "Hg10 mi
3:54 PM43 °FOvercast.17 mph49%30.41 "Hg10 mi
Weather by CustomWeather, © 2014

See weather overviewHow to use our weather pages